Regional Weather Roundup
Issued by NWS Upton, NY

Current Version | Previous Version | Text Only | Print | Product List | Glossary On
Versions: 1 2 3 4 5 6 7 8 9 10 11 12 13 14 15 16 17 18 19 20 21 22 23 24 25 26 27 28 29 30 31 32 33 34 35 36 37 38 39 40 41 42 43 44 45 46 47 48 49 50
000
ASUS41 KOKX 012305
RWROKX

REGIONAL WEATHER ROUNDUP
NATIONAL WEATHER SERVICE NEW YORK NY
700 PM EDT MON SEP 01 2014

NOTE: "FAIR" INDICATES FEW OR NO CLOUDS BELOW 12,000 FEET WITH NO
SIGNIFICANT WEATHER AND/OR OBSTRUCTIONS TO VISIBILITY.

NYZ071-072-176-178-NJZ106-104-020000-
NEW YORK CITY METRO AREA


CITY           SKY/WX    TMP DP  RH WIND       PRES   REMARKS
CENTRAL PARK   CLEAR     81  72  74 CALM      29.94F
LAGUARDIA APRT MOCLDY    83  72  69 S9        29.91F
KENNEDY INTL   MOCLDY    80  72  76 S13       29.93F
NEWARK/LIBERTY MOCLDY    87  69  54 W9        29.91S HX  91
BRNX BOT. GARD   N/A     81  72  74 S5        29.94R
TETERBORO      CLEAR     85  71  63 S7        29.89F HX  90
$$

NYZ177-179-078>081-020000-
LONG ISLAND NEW YORK

CITY           SKY/WX    TMP DP  RH WIND       PRES   REMARKS
FARMINGDALE    PTCLDY    78  73  84 S7        29.94F
ISLIP          PTCLDY    79  71  76 S8        29.92F
SHIRLEY        PTCLDY    78  71  79 S7        29.95S
WESTHAMPTON    PTCLDY    77  70  79 S6        29.96S
MONTAUK POINT    N/A     76  71  85 SW6       29.95F
$$

NYZ052-065-067-020000-
HUDSON VALLEY

CITY           SKY/WX    TMP DP  RH WIND       PRES   REMARKS
WHITE PLAINS   PTCLDY    77  74  90 S3        29.94S
NEWBURGH       PTCLDY    84  72  65 CALM      29.94F
MONTGOMERY     MOCLDY    83  70  64 SW5       29.92F
POUGHKEEPSIE   PTCLDY    82  72  71 SE3       29.90F
ALBANY         MOCLDY    82  67  60 SE3       29.90F
$$

NJZ001-105-106-008-010-013-015-019>022-104-020000-
NEW JERSEY

CITY           SKY/WX    TMP DP  RH WIND       PRES   REMARKS
NEWARK/LIBERTY MOCLDY    87  69  54 W9        29.91S HX  91
TETERBORO      CLEAR     85  71  63 S7        29.89F HX  90
CALDWELL       PTCLDY    85  69  58 SW3       29.92S
MORRISTOWN     PTCLDY    86  70  58 W8        29.92F HX  90
SOMERVILLE     PTCLDY    84  71  65 CALM      29.90F
LINDEN         FAIR      91  71  53 W5        29.92F HX  97
SUSSEX         PTCLDY    83  72  69 CALM      29.93F
ANDOVER          N/A     80  70  71 CALM      29.94S
TRENTON        PTCLDY    83  71  67 SW5       29.92F
MILLVILLE      MOCLDY    81  74  79 SE6       29.95S
ATLANTIC CITY  PTCLDY    80  72  76 S12       29.95F
WRIGHTSTOWN    MOCLDY    81  76  83 S2        29.91F
TOMS RIVER     PTCLDY    82  73  74 S6        29.95S
BELMAR         PTCLDY    81  73  78 S5        29.94S
$$

PAZ047>061-062-071-020000-
EASTERN PENNSYLVANIA

CITY           SKY/WX    TMP DP  RH WIND       PRES   REMARKS
PHILADELPHIA   MOCLDY    86  73  65 S8        29.93S HX  93
ALLENTOWN      CLEAR     85  69  58 S9        29.93S
SCRANTON       PTCLDY    83  68  60 SW6       29.94F
$$

CTZ002-004>006-009-010-012-RIZ004-006-007-MAZ004-011-015-020000-
SOUTHERN NEW ENGLAND
 IN CT

CITY           SKY/WX    TMP DP  RH WIND       PRES   REMARKS
BRADLEY INTL   PTCLDY    85  67  54 SW5       29.90S
HARTFORD       CLEAR     83  71  67 SE7       29.90F
DANBURY        PTCLDY    80  71  74 S5        29.95S
WTRBRY/OXFORD  PTCLDY    81  70  69 S5        29.97F
BRIDGEPORT     PTCLDY    82  72  71 S10       29.92F
MERIDEN        CLEAR     82  71  69 S6        29.92F
NEW HAVEN      PTCLDY    81  72  74 S6        29.93S
CHESTER        FAIR      81  72  74 S5        29.95S
GROTON         CLEAR     75  71  87 S3        29.93S
WILLIMANTIC    MOCLDY    81  73  76 S6        29.93S

 IN RI

CITY           SKY/WX    TMP DP  RH WIND       PRES   REMARKS
PROVIDENCE     PTCLDY    82  70  66 SW9       29.92S
BLOCK ISLAND   CLEAR     73  68  83 SW14      29.95F
WESTERLY       CLEAR     76  70  82 SW5       29.95S

 IN MA

CITY           SKY/WX    TMP DP  RH WIND       PRES   REMARKS
BOSTON         PTCLDY    79  70  74 E3        29.90F
WORCESTER      CLEAR     79  69  71 SW3       29.96F
WESTFIELD      CLEAR     81  69  67 S3        29.91S
PROVINCETOWN   CLEAR     75  70  83 S8        29.92S
NANTUCKET      CLEAR     70  68  93 SW8       29.95S
$$

ANZ330-335-338-340-345-350-353-355-020000-
COASTAL MARINE OBSERVATIONS


STATION/POSITION TIME  SKY/WX   TEMP    WIND        PRES    VSBY  WAVE
                                AIR SEA DIR/SP/G                  HT/PER
                 (UTC)          (F)     (DEG/KT/KT) (MB)    (MI)  (FT/S)
NY HARB ENTRANCE NOT AVBL
4S FIRE IS       NOT AVBL
23SW MTP         2300                                 N/A           3/ 6
HUDSON CANYON    2300            75 75  220/ 12/ 14 1014.8          3/ 6
EXECUTION ROCKS  2300            81 76  190/ 12/ 14   N/A
WESTERN LI SOUND 2300            81     180/  8/ 10   N/A           1
CENTRAL LI SOUND 2200            78 76  190/  6/  8   N/A           0
EASTERN LI SOUND 2200            74 69  210/  4/  6   N/A
ROBBINS REEF     2200            81     170/ 11/ 12   N/A
$$


>>>>>>>>>>>>>>>>>>>>>>>>>>>> KEY <<<<<<<<<<<<<<<<<<<<<<<<<<<
>                                                          <
>     SKY/WX - SKY CONDITION/PRESENT WEATHER               <
>     TMP    - TEMPERATURE IN FAHRENHEIT                   <
>     DP     - DEWPOINT IN FAHRENHEIT                      <
>     RH     - RELATIVE HUMIDITY IN PERCENT                <
>     WIND   - DIRECTION AND SPEED IN MPH                  <
>     PRES   - MEAN SEA LEVEL PRESSURE IN INCHES OF HG     <
>     WCI    - WIND CHILL INDEX                            <
>     VSB    - VISIBILITY IN MILES                         <
>     HX     - HEAT INDEX                                  <
>     TC     - TEMPERATURE IN CELSIUS                      <
>     VRB    - VARIABLE WIND DIRECTION                     <
>                                                          <
>>>>>>>>>>>>>>>>>>>>>>>>>>>> KEY <<<<<<<<<<<<<<<<<<<<<<<<<<<





USA.gov is the U.S. government's official web portal to all federal, state and local government web resources and services.